Flag for U.S.A. Weather past 2 weeks in Vallejo, California, U.S.A.

Now
61 °F

Overcast.


Feels Like: 61 °F
Forecast: 54 / 73 °F
Wind: 12 mph from Northwest

Location: Napa County Airport

Current Time: Aug 20, 2014 at 5:57:50 AM

Latest Report: Aug 20, 2014 at 4:54 AM


Visibility: 10 mi

Pressure: 29.83 "Hg

Humidity: 90%

Dew point: 58 °F

Location of VallejoLocation

Historic Weather in Vallejo — Graph

°F

Vallejo temperature yesterday

Maximum temperature yesterday: 72 °F (at 2:54 PM)
Minimum temperature yesterday: 57 °F (at 5:54 AM)
Average temperature yesterday: 63 °F

Past Weeks' High & Low Weather Summary

 TemperatureHumidityPressure
High81 °F (Aug 6, 1:54 PM)100% (Aug 5, 5:54 AM)30.04 "Hg (Aug 5, 5:54 AM)
Low47 °F (Aug 16, 5:56 AM)47% (Aug 16, 2:54 PM)29.76 "Hg (Aug 18, 5:54 PM)
Average63 °F80%29.91 "Hg
* Reported Aug 5 4:54 AM — Aug 20 4:54 AM, Vallejo, Weather by CustomWeather, © 2014

Note: Actual official high and low records may vary slightly from our data, if they occured in-between our weather recording intervals... More about our weather records

Advertising

Vallejo weather history for previous 24 hours

 ConditionsComfort  
Time TempWeatherWind HumidityBarometerVisibility
4:54 AM
Aug 20
61 °FOvercast.12 mph90%29.83 "Hg10 mi
3:54 AM61 °FOvercast.10 mph87%29.83 "Hg10 mi
2:54 AM61 °FOvercast.13 mph90%29.82 "Hg10 mi
1:54 AM62 °FOvercast.10 mph86%29.82 "Hg10 mi
12:54 AM62 °FOvercast.12 mph83%29.83 "Hg10 mi
11:54 PM
Aug 19
62 °FOvercast.14 mph83%29.83 "Hg10 mi
10:54 PM62 °FOvercast.13 mph83%29.83 "Hg10 mi
9:54 PM63 °FOvercast.12 mph81%29.82 "Hg10 mi
8:54 PM62 °FPartly sunny.12 mph86%29.80 "Hg10 mi
7:54 PM63 °FSunny.12 mph84%29.78 "Hg10 mi
6:54 PM67 °FSunny.13 mph79%29.77 "Hg10 mi
5:54 PM68 °FSunny.23 mph73%29.76 "Hg10 mi
4:54 PM70 °FSunny.23 mph71%29.76 "Hg10 mi
3:54 PM71 °FSunny.22 mph66%29.77 "Hg10 mi
2:54 PM72 °FSunny.17 mph64%29.79 "Hg10 mi
1:54 PM70 °FPassing clouds.12 mph66%29.81 "Hg10 mi
12:54 PM65 °FPartly sunny.9 mph78%29.83 "Hg10 mi
11:54 AM64 °FOvercast.8 mph78%29.84 "Hg10 mi
10:54 AM62 °FOvercast.7 mph80%29.84 "Hg10 mi
9:54 AM60 °FLow clouds.8 mph83%29.84 "Hg10 mi
8:54 AM58 °FLow clouds.8 mph90%29.84 "Hg10 mi
7:54 AM58 °FLow clouds.7 mph90%29.83 "Hg10 mi
6:54 AM57 °FLow clouds.7 mph93%29.82 "Hg10 mi
5:54 AM57 °FLow clouds.7 mph93%29.80 "Hg10 mi
Weather by CustomWeather, © 2014

See weather overviewHow to use our weather pages